Weather History for Greybull, WY

Change the Weather History Date:

Monday, January 7, 2013

  Actual Average Record
Temperature  
Mean Temperature 14 °F 16 °F  
Max Temperature 27 °F 28 °F 43 °F (2006)
Min Temperature 0 °F 4 °F -20 °F (2010)
Degree Days  
Heating Degree Days 51 49  
Month to date heating degree days 404 343  
Since 1 July heating degree days 3383 3666  
Cooling Degree Days 0 0  
Month to date cooling degree days 0 0  
Year to date cooling degree days 0 0  
Moisture  
Dew Point 7 °F    
Average Humidity 75    
Maximum Humidity 95    
Minimum Humidity 55    
Precipitation  
Precipitation 0.00 in 0.01 in 0.07 in (2009)
Month to date precipitation T 0.07  
Year to date precipitation T 0.07  
Sea Level Pressure  
Sea Level Pressure 30.08 in    
Wind  
Wind Speed 2 mph (South)    
Max Wind Speed 10 mph    
Max Gust Speed 13 mph    
Visibility 10 miles    
Events      
T = Trace of Precipitation, MM = Missing Value Source: NWS Daily Summary

Daily Weather History Graph

Daily Weather History Graph

Search for Another Location

Airport:

Trip Planner

Search our weather history database for the weather conditions in past years. The results will help you decide how hot, cold, wet, or windy it might be!

Date:

Astronomy

Jan. 07, 2013 Rise Set
Actual Time 7:48 AM MST 4:49 PM MST
Civil Twilight 7:15 AM MST 5:22 PM MST
Nautical Twilight 6:38 AM MST 5:58 PM MST
Astronomical Twilight 6:03 AM MST 6:34 PM MST
Moon 3:13 AM MST (1/7) 1:04 PM MST (1/7)
Length of Visible Light 10h 07m
Length of Day
9h 01m
Waning Crescent, 22% of the Moon is Illuminated
Jan 7
Waning Crescent
Jan 11
New
Jan 18
First Quarter
Jan 26
Full
Feb 3
Last Quarter

Hourly Weather History & Observations

Time (MST) Temp. Windchill Dew Point Humidity Pressure Visibility Wind Dir Wind Speed Gust Speed Precip Events Conditions
12:53 AM 1.9 °F -7.6 °F -0.0 °F 91% 30.18 in 10.0 mi SE 4.6 mph - N/A   Clear
1:53 AM 3.9 °F - 1.0 °F 88% 30.17 in 8.0 mi Calm Calm - N/A   Clear
2:53 AM 3.9 °F -3.4 °F 1.0 °F 88% 30.19 in 9.0 mi West 3.5 mph - N/A   Clear
3:53 AM 3.0 °F -8.0 °F -0.0 °F 87% 30.18 in 9.0 mi NW 5.8 mph - N/A   Clear
4:53 AM 1.9 °F - -0.9 °F 88% 30.18 in 10.0 mi Calm Calm - N/A   Clear
5:53 AM 3.0 °F - -0.9 °F 84% 30.21 in 10.0 mi Calm Calm - N/A   Clear
6:53 AM 3.0 °F - -0.0 °F 87% 30.19 in 10.0 mi Calm Calm - N/A   Clear
7:53 AM 1.9 °F - -2.0 °F 83% 30.20 in 10.0 mi Calm Calm - N/A   Partly Cloudy
8:53 AM 3.0 °F -6.4 °F -0.0 °F 87% 30.20 in 6.0 mi SE 4.6 mph - N/A   Clear
9:53 AM 10.0 °F - 6.1 °F 84% 30.19 in 9.0 mi Calm Calm - N/A   Clear
10:53 AM 14.0 °F - 7.0 °F 74% 30.17 in 10.0 mi Calm Calm - N/A   Clear
11:53 AM 17.1 °F 11.7 °F 9.0 °F 71% 30.13 in 10.0 mi South 3.5 mph - N/A   Clear
12:53 PM 21.9 °F - 10.9 °F 63% 30.07 in 10.0 mi Calm Calm - N/A   Clear
1:53 PM 24.1 °F 19.7 °F 12.0 °F 60% 30.03 in 10.0 mi West 3.5 mph - N/A   Clear
2:53 PM 26.1 °F - 12.9 °F 58% 29.99 in 10.0 mi Calm Calm - N/A   Clear
3:53 PM 21.9 °F 14.5 °F 12.9 °F 68% 29.99 in 10.0 mi NW 5.8 mph - N/A   Clear
4:53 PM 19.0 °F 12.3 °F 10.9 °F 71% 29.98 in 10.0 mi WNW 4.6 mph - N/A   Clear
5:53 PM 17.1 °F - 10.9 °F 77% 29.98 in 10.0 mi Calm Calm - N/A   Clear
6:53 PM 17.1 °F 11.7 °F 10.9 °F 77% 29.97 in 10.0 mi SE 3.5 mph - N/A   Mostly Cloudy
7:53 PM 19.9 °F 12.1 °F 12.9 °F 74% 29.95 in 10.0 mi SSE 5.8 mph - N/A   Partly Cloudy
8:53 PM 17.1 °F - 12.0 °F 81% 29.96 in 10.0 mi Calm Calm - N/A   Mostly Cloudy
9:53 PM 17.1 °F 11.7 °F 12.0 °F 81% 29.93 in 10.0 mi SE 3.5 mph - N/A   Mostly Cloudy
10:53 PM 16.0 °F 7.4 °F 10.9 °F 81% 29.93 in 10.0 mi SSE 5.8 mph - N/A   Clear
11:53 PM 17.1 °F 11.7 °F 12.0 °F 81% 29.94 in 10.0 mi SE 3.5 mph - N/A   Clear